Theta_e
311 310 310 310 309 310 311 311 312 312 312 313 314 317 316 314 314 314 319 319 321 319 321 324 324 325 328 332 332 333 336 337 338 338 340 340 342 343 345 346 344 344 345 344 344
310 310 309 309 309 310 310 311 312 312 313 313 315 317 315 315 317 323 322 318 318 319 322 323 324 327 331 332 332 334 337 339 338 338 340 339 341 342 344 345 345 344 344 343 343
310 309 309 309 309 310 310 311 312 312 313 313 318 316 314 317 327 324 318 317 318 319 323 322 326 329 331 332 333 338 339 338 338 338 339 341 341 342 342 344 344 343 342 342 341
309 309 308 309 309 309 310 311 312 313 313 314 319 316 314 318 331 325 317 317 316 320 322 323 327 329 331 332 333 339 338 338 339 339 340 341 341 344 345 344 342 341 341 341 338
308 308 309 309 309 309 310 311 312 313 313 315 320 316 316 327 327 320 320 318 316 319 321 324 327 328 330 330 332 339 340 339 339 339 341 341 342 342 342 342 341 341 341 339 334
307 308 308 309 309 309 310 311 312 313 313 316 320 316 320 327 327 322 321 317 320 320 322 325 327 327 328 330 335 338 339 340 341 341 341 342 341 341 341 340 340 340 338 334 332
307 307 308 308 309 309 310 311 312 313 314 318 320 317 323 325 326 326 324 321 321 320 323 324 323 325 329 335 338 339 341 342 342 341 342 341 342 344 340 339 336 334 333 332 333
307 307 308 308 309 310 310 311 312 313 315 318 320 319 326 324 326 326 324 322 321 321 322 323 322 327 332 337 339 340 341 344 343 342 341 341 347 343 341 339 337 334 334 334 333
307 307 308 308 309 309 311 312 313 315 317 318 323 325 326 321 325 323 323 322 321 320 321 321 323 331 338 338 338 340 340 343 345 341 342 341 347 342 341 340 339 336 335 335 335
307 307 307 308 309 310 311 316 318 319 319 319 321 326 324 325 324 321 321 321 321 321 322 322 325 334 336 337 339 338 337 341 342 343 341 341 342 343 340 340 340 338 336 336 337
307 307 307 308 309 310 313 320 322 325 324 324 325 323 324 325 323 320 321 320 320 322 325 324 328 333 334 336 336 333 337 334 336 341 342 340 342 344 341 340 339 338 337 337 336
308 307 308 308 309 310 319 318 316 316 321 323 323 322 322 322 324 321 319 321 321 324 326 327 328 332 334 335 336 335 332 333 338 341 340 337 340 343 342 341 340 339 338 337 336
309 308 308 308 309 316 317 316 315 318 324 325 323 323 323 323 324 321 320 322 324 325 326 328 328 329 331 332 336 335 332 332 334 341 339 337 339 343 344 341 340 339 338 337 337
311 309 308 308 316 315 319 315 315 320 329 327 324 322 322 323 325 323 320 322 324 325 326 326 328 327 328 328 329 331 330 330 331 339 337 341 337 346 346 345 342 340 339 338 337
313 310 308 308 309 316 316 315 316 322 332 326 324 323 323 324 324 325 320 322 325 324 326 326 326 326 326 327 328 328 329 329 330 336 337 340 343 340 347 347 345 341 340 338 337
317 314 310 318 318 317 315 315 319 330 332 326 322 323 325 324 325 324 322 322 323 325 326 326 325 325 325 327 327 328 330 332 334 336 340 339 341 343 350 348 346 342 340 338 338
317 316 314 310 318 316 315 317 327 332 328 326 323 324 325 326 327 326 325 324 325 325 325 325 325 325 325 328 328 329 334 338 340 340 340 342 343 342 346 343 344 343 340 340 339
317 317 315 310 317 316 316 320 329 325 327 328 327 324 325 327 327 327 327 325 324 325 326 326 325 325 326 329 333 334 337 337 336 339 343 343 341 349 345 342 341 341 341 339 337
317 319 321 318 315 315 317 322 325 326 329 327 328 328 325 325 327 328 327 327 326 325 326 327 326 326 328 332 334 336 337 336 336 335 335 336 344 348 346 344 341 342 340 337 335
317 321 319 317 315 315 319 321 324 324 325 326 330 328 329 324 325 327 328 328 327 326 326 329 328 328 328 330 331 333 335 335 334 337 339 338 340 351 347 345 342 343 338 336 334
317 321 318 314 316 316 320 321 322 320 321 326 330 329 329 326 324 327 327 328 327 326 326 328 331 332 330 329 330 333 335 334 334 338 341 338 343 343 346 344 343 340 336 335 333
321 323 318 315 317 317 320 321 317 320 320 323 326 329 329 327 326 326 328 329 326 326 325 327 332 336 331 331 331 333 332 333 336 338 339 342 343 339 340 341 341 339 336 335 332
321 321 318 317 319 319 319 320 320 320 322 324 327 329 330 331 330 326 328 327 326 326 326 329 331 337 334 333 332 333 333 333 335 339 337 337 341 337 337 339 339 338 336 334 331
321 322 318 316 319 323 321 321 322 319 320 322 326 329 330 330 330 331 327 327 326 325 326 330 333 336 335 334 332 332 331 333 334 338 336 339 339 339 339 340 339 338 335 333 330
320 321 320 319 318 323 324 322 321 322 321 322 326 328 331 333 330 330 330 329 329 326 328 332 335 336 335 334 333 333 334 333 335 335 336 335 333 336 337 338 338 336 334 332 329
319 319 317 321 321 321 320 325 323 322 324 324 328 330 332 335 335 334 331 331 331 333 331 333 340 337 336 333 332 333 332 333 333 333 334 332 330 331 334 335 337 336 333 331 329
317 318 317 318 322 324 324 324 324 324 324 324 328 331 331 334 334 334 335 337 338 335 335 337 338 339 337 334 333 333 333 333 333 334 333 332 336 333 335 335 335 334 333 332 329
Wind_Speed
15 18 18 18 18 16 18 20 20 22 24 24 23 19 12 8 3 6 8 11 11 17 15 11 11 10 10 13 14 13 11 9 16 12 15 10 14 11 14 13 17 19 20 17 14
15 17 20 19 19 18 18 20 20 22 24 23 22 16 9 7 4 8 10 14 15 18 14 15 15 13 14 14 10 6 15 17 15 16 14 11 14 13 12 15 18 18 15 14 14
15 17 20 20 19 18 19 20 20 22 24 23 18 11 7 3 4 9 11 16 14 16 12 14 12 13 15 11 10 2 6 14 7 19 16 13 12 10 11 13 14 15 15 14 13
14 16 18 20 20 19 18 20 20 21 22 22 14 8 4 4 1 6 9 14 14 17 13 15 14 15 14 11 6 2 12 14 15 12 13 14 12 13 16 14 12 13 15 15 14
15 16 18 20 20 20 19 19 19 20 20 17 10 7 3 8 3 9 10 13 15 14 16 16 15 19 9 6 10 7 9 11 12 10 12 11 12 12 15 13 14 13 14 14 15
15 16 17 19 22 21 19 19 19 18 18 13 8 6 4 15 7 9 11 13 12 14 16 15 9 8 4 7 6 13 10 13 12 13 12 14 15 9 13 14 14 13 13 14 14
15 16 17 19 21 21 20 19 18 18 15 9 6 7 8 2 6 10 16 14 13 15 14 10 7 10 9 6 7 15 12 13 14 14 12 11 10 10 15 14 14 14 13 14 13
15 16 17 18 19 20 20 19 18 17 12 7 6 5 4 4 6 13 15 13 14 13 12 10 6 7 8 7 10 15 14 16 15 15 9 11 10 14 15 16 16 15 14 14 12
15 16 16 17 18 19 18 18 16 13 8 5 4 3 6 7 9 13 16 16 16 13 8 9 9 5 6 12 10 13 12 9 11 16 11 14 10 16 15 16 16 16 16 15 13
13 15 16 15 16 17 16 13 9 8 4 3 6 6 8 12 10 13 16 14 17 15 11 12 13 10 10 13 15 11 15 23 11 14 11 12 9 15 16 17 16 17 17 15 12
13 14 14 14 14 14 16 11 6 3 8 14 1 6 8 9 10 14 18 16 17 17 15 20 14 17 19 20 21 8 8 9 5 14 10 11 11 11 18 18 17 18 18 16 13
14 13 13 12 11 8 12 6 7 7 11 13 12 13 7 9 12 16 21 17 16 17 22 14 20 20 19 19 19 9 16 13 9 8 8 11 12 14 20 20 19 19 18 17 13
14 13 13 10 7 8 5 4 9 8 8 8 14 17 14 14 13 21 26 24 18 19 20 17 19 21 18 16 19 13 18 14 8 8 11 12 15 15 18 21 22 19 17 17 20
13 13 12 6 2 6 1 8 11 4 5 13 12 11 15 17 14 20 28 25 14 18 17 16 13 12 12 16 13 19 15 15 15 7 11 14 12 20 18 19 21 23 22 22 20
12 12 10 10 7 4 5 9 10 3 5 14 11 10 16 22 11 20 28 28 17 17 12 15 14 8 13 18 19 17 14 13 14 12 18 13 8 4 19 19 19 22 21 21 22
12 12 11 7 9 8 8 11 6 6 5 8 10 13 16 22 12 23 25 27 21 16 15 17 11 14 17 16 17 14 8 14 11 13 17 12 13 7 15 16 18 22 21 24 21
12 11 12 11 6 7 8 6 6 10 8 9 15 17 20 14 15 18 22 22 18 17 17 17 13 13 15 10 11 15 13 10 11 12 13 10 9 7 12 5 15 18 22 23 18
14 12 12 11 10 10 6 7 9 8 7 6 4 13 18 19 16 19 21 20 23 19 14 16 16 20 12 18 14 19 16 14 5 13 10 22 5 8 12 9 14 20 23 18 19
12 9 12 9 10 7 9 10 8 3 5 3 9 11 14 15 15 17 20 20 23 23 19 14 17 23 19 19 19 19 16 21 12 13 10 12 9 7 10 11 13 22 21 22 20
10 11 13 9 8 8 10 16 9 3 4 8 12 13 16 16 17 18 17 17 19 24 22 8 11 18 18 18 20 13 10 11 10 15 12 5 10 9 11 12 14 20 22 22 20
8 7 7 8 7 13 11 17 13 3 5 6 5 4 10 16 17 16 16 11 20 19 20 12 9 12 13 15 17 12 15 9 11 4 12 11 5 5 11 12 16 21 23 23 21
9 7 5 9 12 16 13 15 6 10 7 5 5 12 7 7 11 18 16 13 17 22 23 19 7 8 17 16 11 10 18 16 9 11 6 5 6 2 7 14 17 22 23 21 20
10 14 6 11 8 12 16 15 8 11 9 5 6 8 7 5 6 15 8 8 9 20 22 16 7 12 9 8 8 11 11 12 7 5 14 13 3 6 6 13 17 21 22 21 20
7 4 9 14 22 13 14 13 15 14 13 9 9 10 8 10 10 6 15 7 10 20 10 16 13 16 10 16 16 16 17 9 8 8 13 2 7 10 9 12 16 20 21 21 19
7 6 3 8 14 14 13 10 16 10 14 10 10 14 10 8 13 14 11 11 9 10 9 8 14 13 10 3 2 6 10 10 8 14 9 14 11 9 7 12 17 20 21 21 19
5 5 9 14 5 18 10 13 13 15 7 13 13 14 6 11 7 4 11 9 15 8 14 12 11 12 7 5 6 8 7 7 8 7 8 6 9 6 9 13 18 20 21 20 18
8 10 9 9 11 11 13 16 14 10 10 17 12 3 10 4 7 14 15 11 10 12 14 14 7 9 12 7 9 10 7 7 8 6 9 9 10 9 9 13 17 19 20 19 18
Wind_Direction
306 309 312 320 328 332 330 328 333 332 331 330 333 332 332 307 277 194 207 217 198 184 185 178 191 200 205 236 238 261 286 103 105 97 112 140 96 78 84 84 70 71 98 119 122
303 306 312 317 323 328 327 326 331 329 329 328 334 334 330 306 213 212 215 200 196 183 171 179 185 187 202 219 216 246 298 78 87 109 111 91 100 120 120 106 99 101 104 117 124
301 305 306 314 321 325 325 324 328 327 328 329 333 333 326 263 200 162 206 184 181 185 174 178 184 191 220 185 212 243 207 98 93 93 107 109 111 128 135 126 136 124 123 130 131
298 301 305 311 317 321 322 321 324 326 325 326 329 323 307 227 247 159 166 177 174 165 186 194 198 215 221 201 168 123 88 100 101 123 126 103 100 70 69 82 119 128 131 131 133
302 303 303 308 314 318 319 319 321 322 322 320 325 323 255 240 107 161 169 173 171 175 189 188 198 229 215 144 182 153 121 123 135 132 110 137 106 106 106 117 121 127 136 136 124
303 307 307 306 311 314 316 316 319 318 321 313 318 307 263 251 142 173 175 175 177 184 189 191 213 276 274 166 214 134 149 145 153 127 137 121 129 121 127 130 130 142 138 136 133
305 308 310 310 308 312 313 315 316 314 314 301 307 312 261 329 170 189 180 183 181 185 187 191 212 238 169 150 178 150 153 157 158 156 154 148 154 123 145 147 144 145 145 142 140
307 308 310 311 310 310 312 314 313 309 302 285 301 298 264 156 171 173 179 180 187 190 205 191 198 239 243 118 154 178 174 186 170 161 150 229 129 137 162 165 161 161 159 157 156
306 308 309 311 311 311 313 314 312 303 290 275 315 230 224 180 171 176 177 182 177 180 184 188 183 183 161 173 204 214 214 184 162 168 145 222 115 154 182 184 175 177 174 173 164
307 309 309 312 314 315 317 326 320 312 289 271 244 241 205 205 169 175 176 186 179 180 176 193 192 189 205 202 215 221 226 213 161 168 202 199 245 151 187 199 189 190 186 186 177
308 307 308 315 318 327 342 335 297 202 237 264 283 258 140 145 157 179 179 170 187 194 203 200 206 206 196 229 252 316 263 290 148 120 195 245 202 192 186 211 201 195 200 177 187
309 309 308 318 324 335 12 33 32 328 298 263 242 227 206 188 185 180 178 179 200 206 211 188 219 208 207 220 246 260 279 268 80 111 243 246 230 194 190 208 213 202 203 167 175
313 312 309 321 336 12 353 23 350 320 261 230 219 226 203 194 198 179 186 196 197 212 210 212 217 233 217 218 230 239 246 255 243 146 241 263 256 203 202 195 215 208 202 176 177
313 314 319 326 17 327 247 345 341 302 264 158 199 209 185 189 214 192 192 199 203 217 213 231 224 234 204 230 223 243 229 257 273 201 269 186 298 187 192 194 206 205 202 164 169
310 314 324 323 296 330 295 328 329 310 248 153 140 148 188 196 183 199 194 205 221 218 224 221 244 221 238 233 230 244 268 274 237 225 263 224 250 204 174 195 204 209 205 163 172
309 311 317 334 295 280 301 311 309 234 231 152 155 180 172 204 165 176 191 212 225 224 224 244 192 233 226 240 234 248 230 249 236 238 236 265 221 154 169 200 198 200 204 162 173
300 304 300 288 200 288 309 297 230 245 126 155 180 168 186 186 196 164 188 201 214 225 219 217 225 237 232 235 219 220 207 211 220 237 253 223 214 102 135 161 183 185 178 162 173
293 295 293 273 255 269 293 234 250 219 167 96 187 190 194 183 195 188 191 201 215 219 219 217 208 222 180 229 204 205 200 256 236 265 150 241 248 103 121 134 157 174 160 164 174
289 303 279 260 239 225 230 221 220 267 80 210 195 209 201 200 206 197 203 210 198 220 226 217 237 184 201 221 213 197 234 244 302 289 275 279 80 124 133 144 163 155 151 169 175
290 288 253 224 219 201 231 246 269 13 336 241 247 208 189 198 203 208 199 211 218 199 226 258 225 181 190 214 233 262 231 239 232 270 286 308 240 93 170 163 168 146 165 167 163
281 251 178 207 199 215 226 225 228 206 281 279 268 231 269 182 203 216 219 203 209 196 218 231 239 176 179 214 219 209 244 232 285 242 264 310 69 76 161 166 162 159 166 165 166
261 238 180 186 207 221 227 230 28 271 224 260 278 288 285 242 217 235 210 212 193 215 201 214 242 214 203 203 255 271 237 247 248 259 315 278 317 69 110 148 163 165 166 167 170
255 252 216 191 223 222 222 240 234 256 235 237 251 245 206 274 254 228 224 236 197 203 198 192 224 236 157 198 207 245 232 263 276 315 281 289 81 144 127 132 164 167 161 167 166
270 225 192 210 245 292 209 216 228 219 257 257 280 302 255 244 242 243 224 159 219 217 148 203 227 234 221 226 202 209 238 229 241 259 284 131 185 139 138 145 164 160 162 167 169
243 252 337 202 221 233 259 211 222 211 216 214 247 244 242 255 219 220 230 164 203 151 199 195 233 232 247 307 225 186 213 227 237 259 284 321 346 95 138 158 170 164 168 168 173
281 295 237 272 254 210 211 234 230 208 221 209 236 219 252 246 312 311 239 206 186 178 215 200 239 231 192 186 183 210 220 241 275 300 278 290 288 97 131 159 170 171 176 175 178
250 279 284 237 214 232 217 228 217 234 214 257 224 335 256 337 346 306 294 303 316 175 191 192 214 220 205 196 227 233 238 251 272 259 284 309 75 124 150 173 179 178 183 181 180